This demonstration page uses our WeatherBlox Daily Observations layout. Learn more.

Left ArrowRight Arrow

Hourly Observations for July 19, 2022

Temp ( °F °C ) Dew Point ( °F °C ) Humidity (%) Winds ( mph kmh ) Pressure ( in mb ) Visibility ( mi km ) Precip ( " mm )
12:53 am 00:53 Mostly Clear 93 33.9 62 16.7 36 36 S 10 17 29.79 1009 10 16 0.00 0.00
1:53 am 01:53 Mostly Clear 92 33.3 62 16.7 37 37 S 14 22 29.80 1009 10 16 0.00 0.00
2:53 am 02:53 Mostly Clear 91 32.8 63 17.2 39 39 S 12 19 29.81 1009 10 16 0.00 0.00
3:53 am 03:53 Partly Cloudy 88 31.1 66 18.9 48 48 S 12 19 29.82 1010 10 16 0.00 0.00
4:53 am 04:53 Clear 86 30 69 20.6 57 57 S 10 17 29.83 1010 10 16 0.00 0.00
5:53 am 05:53 Mostly Clear 85 29.4 67 19.4 55 55 S 10 17 29.85 1011 10 16 0.00 0.00
6:53 am 06:53 Mostly Sunny 84 28.9 65 18.3 53 53 S 12 19 29.86 1011 10 16 0.00 0.00
7:53 am 07:53 Sunny 84 28.9 67 19.4 57 57 SSW 9 15 29.88 1012 10 16 0.00 0.00
8:53 am 08:53 Sunny 87 30.6 69 20.6 55 55 SSW 12 19 29.89 1012 10 16 0.00 0.00
9:53 am 09:53 Mostly Sunny 89 31.7 69 20.6 52 52 SSW 14 22 29.88 1012 10 16 0.00 0.00
10:53 am 10:53 Mostly Sunny 93 33.9 69 20.6 46 46 S 10 17 29.86 1011 10 16 0.00 0.00
11:53 am 11:53 Mostly Sunny 97 36.1 68 20 39 39 SW 9 15 29.85 1011 10 16 0.00 0.00
12:53 pm 12:53 Mostly Sunny 100 37.8 68 20 35 35 SW 15 24 29.83 1010 10 16 0.00 0.00
1:53 pm 13:53 Mostly Sunny 103 39.4 68 20 32 32 SSW 12 19 29.80 1009 10 16 0.00 0.00
2:53 pm 14:53 Mostly Sunny 105 40.6 66 18.9 28 28 SSE 15 24 29.77 1008 10 16 0.00 0.00
3:53 pm 15:53 Mostly Sunny 105 40.6 64 17.8 26 26 S 14 22 29.76 1008 10 16 0.00 0.00
4:53 pm 16:53 Mostly Sunny 106 41.1 64 17.8 26 26 S 14 22 29.74 1007 10 16 0.00 0.00
5:53 pm 17:53 Mostly Sunny 106 41.1 64 17.8 26 26 S 12 19 29.73 1007 10 16 0.00 0.00
6:53 pm 18:53 Mostly Sunny 104 40 63 17.2 26 26 S 16 26 29.72 1007 10 16 0.00 0.00
7:53 pm 19:53 Mostly Sunny 102 38.9 61 16.1 26 26 S 13 20 29.72 1007 10 16 0.00 0.00
8:53 pm 20:53 Mostly Clear 100 37.8 60 15.6 27 27 S 15 24 29.74 1007 10 16 0.00 0.00
9:53 pm 21:53 Mostly Clear 98 36.7 61 16.1 29 29 S 15 24 29.75 1008 10 16 0.00 0.00
10:53 pm 22:53 Clear 97 36.1 61 16.1 30 30 S 13 20 29.77 1008 10 16 0.00 0.00
11:53 pm 23:53 Clear 95 35 62 16.7 34 34 S 14 22 29.77 1008 10 16 0.00 0.00

Powered by AerisWeather